GFSNGP_700_spd_033.txt.gz
Wind_Speed
19 15 18 19 20 15 17 19 21 21 20 16 20 16 10 10 12 15 15 15 15 17 20 22 26 28 29 30 30 30 28 30 28 28 31 31 36 38 44 48 54 55 55 51
16 18 22 26 26 25 22 21 22 20 18 13 14 19 14 12 14 18 19 19 17 18 19 22 24 24 28 28 26 25 28 30 28 29 33 37 38 43 50 53 53 53 45 36
21 21 21 23 27 30 33 31 26 27 25 22 22 18 17 15 15 18 19 16 16 17 19 22 21 16 18 20 21 24 28 31 32 35 38 41 48 52 54 57 55 46 38 41
11 14 2 19 20 22 26 29 32 31 30 23 17 19 17 16 15 14 14 15 16 17 18 19 20 23 24 24 21 23 27 32 36 37 42 47 52 57 61 52 42 37 42 35
10 17 17 14 13 16 15 14 14 13 13 17 18 18 16 13 12 14 16 18 19 19 21 22 23 23 23 22 24 26 30 34 39 45 47 54 51 58 43 43 39 44 38 29
13 7 8 25 21 23 17 15 18 15 14 16 15 14 13 13 15 18 20 20 21 22 23 23 22 24 26 25 25 27 31 38 44 49 60 51 45 41 42 42 41 34 26 29
24 15 15 18 15 14 21 17 21 21 17 15 14 15 14 18 21 20 18 18 19 21 23 25 26 27 26 26 25 28 31 31 33 35 42 41 41 41 38 32 31 29 30 31
24 15 14 20 20 25 20 20 13 13 17 15 15 17 22 21 19 19 20 21 23 24 26 28 30 27 25 26 27 29 29 30 34 38 41 42 33 32 33 33 32 32 34 35
18 17 14 9 14 23 24 19 13 10 13 14 18 21 21 19 20 21 22 23 24 26 28 26 27 29 30 29 33 33 34 35 31 28 28 31 33 33 33 34 36 37 38 39
20 21 18 15 13 14 16 15 14 11 15 18 19 20 20 21 23 22 23 24 26 29 25 27 29 31 32 36 36 30 26 27 28 29 31 32 33 34 36 37 39 41 42 42
24 22 18 18 18 16 16 15 15 17 18 19 21 22 24 26 24 24 26 28 29 26 27 29 31 33 29 22 24 24 25 27 28 30 32 33 35 37 39 40 42 44 45 45
25 20 21 16 15 16 18 20 21 22 23 23 24 25 27 26 26 27 29 28 27 27 28 29 25 22 22 22 23 23 25 27 29 32 34 36 39 40 41 43 46 48 49 48
20 16 17 17 18 18 20 22 23 24 24 25 26 27 26 26 27 27 27 26 26 24 22 21 21 21 22 23 24 27 29 30 32 34 37 40 42 46 48 48 49 50 51 48
19 20 21 20 21 21 21 22 24 25 27 28 27 27 26 26 25 25 24 22 21 20 20 20 21 22 23 25 27 29 32 35 38 40 43 45 48 50 52 54 54 52 50 48
21 20 20 20 21 23 24 25 27 28 28 28 27 26 25 24 23 21 20 19 18 19 19 20 22 24 26 29 31 33 35 38 41 44 46 49 50 51 52 52 51 50 47 42
22 23 22 23 26 27 27 28 28 28 28 27 25 24 22 20 18 17 17 18 18 18 20 22 24 27 29 31 33 36 39 43 45 47 49 50 50 50 48 46 44 43 41 39
27 27 26 27 28 28 27 27 28 27 26 25 24 21 18 15 15 17 18 18 19 20 22 24 27 29 32 35 38 40 43 46 48 49 50 50 49 48 46 44 42 40 38 36
32 33 29 31 28 26 26 26 26 26 25 24 21 18 17 16 15 17 18 19 20 22 24 27 29 32 35 38 41 44 47 48 49 50 50 49 47 45 43 42 41 41 39 35
34 32 30 27 26 25 25 25 24 25 23 21 18 16 12 13 16 17 18 20 23 25 27 29 32 35 39 42 45 47 48 49 49 48 47 45 43 42 41 40 39 37 36 33
31 30 28 27 25 23 22 20 20 19 17 16 13 12 13 14 16 18 20 22 24 27 30 33 35 39 43 45 46 46 48 49 48 47 45 43 42 40 39 38 37 36 33 31
22 25 25 22 20 18 16 15 15 16 13 11 10 11 15 17 18 21 22 25 27 30 32 35 40 44 45 45 46 48 48 48 46 45 43 42 40 39 38 36 35 33 32 30
22 21 20 15 12 12 12 13 13 11 10 10 13 16 17 18 20 22 25 28 30 32 36 41 44 44 45 46 46 46 46 45 43 42 40 39 38 37 35 34 33 32 31 31
8 8 8 7 9 11 14 13 11 10 11 15 17 17 18 19 21 25 27 30 33 36 41 44 44 45 46 46 45 45 44 42 40 39 38 36 35 34 33 32 32 31 30 29
5 8 11 13 15 13 11 11 11 13 16 18 19 19 20 22 25 28 30 34 37 42 44 44 45 45 45 44 43 42 41 40 38 37 35 34 33 32 32 32 31 30 30 29
11 12 13 12 11 11 13 15 17 19 20 21 22 23 24 27 29 32 35 39 43 45 44 43 43 43 43 42 41 40 40 38 37 35 34 33 33 32 32 32 32 31 29 28
12 12 12 12 14 16 18 20 22 23 23 24 25 27 29 31 33 36 40 44 45 44 42 42 42 42 41 40 39 39 38 37 35 33 32 32 31 32 33 33 32 31 29 28
12 12 14 17 19 20 22 23 25 26 27 28 30 31 33 35 37 40 43 43 43 42 41 41 40 40 39 39 38 38 36 34 33 31 31 32 33 34 33 32 31 30 29 29

GFSNGP_700_spd_036.txt.gz
Wind_Speed
26 21 19 16 19 19 20 21 22 24 24 21 18 18 19 13 12 15 15 17 16 14 16 17 18 20 22 24 26 27 27 28 26 27 29 31 32 35 38 42 44 57 47 57
27 25 20 19 21 22 23 27 28 24 26 24 20 15 15 17 15 14 15 18 20 20 19 21 21 23 24 25 28 30 29 28 28 29 31 34 37 41 42 42 47 45 53 57
23 21 19 24 30 29 31 31 31 31 30 24 25 24 22 21 18 18 18 19 18 18 18 20 23 24 23 24 25 25 26 27 28 30 32 37 39 42 43 48 53 55 49 44
18 16 4 28 29 24 24 25 28 32 33 30 32 29 22 19 18 16 15 14 15 17 20 23 24 24 26 27 27 25 23 24 26 29 33 37 41 43 49 58 57 43 42 42
14 18 23 21 17 16 15 19 18 18 20 23 23 20 18 17 15 13 14 17 20 23 24 24 24 24 24 23 23 24 25 25 26 29 30 35 48 47 49 45 42 38 38 39
17 8 8 24 20 24 24 27 22 15 12 11 15 18 15 12 12 15 17 20 22 22 22 22 22 22 23 24 26 27 27 29 31 28 32 35 34 37 37 39 39 38 35 34
26 16 17 21 16 15 18 29 17 18 16 15 16 16 15 14 14 18 21 22 21 20 21 22 24 26 28 29 28 28 28 29 29 30 28 30 34 40 41 39 35 35 35 33
25 16 15 22 20 27 24 18 18 15 14 18 17 16 16 16 20 21 21 20 20 22 23 25 28 30 31 28 28 29 28 27 35 33 34 34 31 31 34 34 35 35 37 38
27 25 25 18 13 15 20 23 12 9 11 15 17 16 17 19 20 19 19 21 22 24 26 28 30 32 28 29 28 32 35 37 27 27 28 29 30 31 33 34 37 39 41 42
30 30 29 27 22 17 14 17 18 15 13 15 16 17 20 20 19 20 23 24 25 27 29 29 30 28 29 31 35 29 23 25 25 26 27 30 32 34 36 37 40 42 44 46
33 34 29 23 21 18 16 16 16 16 15 16 18 19 20 20 22 24 27 26 28 30 30 28 27 28 31 26 23 24 24 25 26 28 31 32 34 36 38 40 43 47 49 52
31 28 28 21 15 14 18 17 16 16 17 19 21 22 23 25 26 28 28 28 29 30 29 27 28 26 23 23 23 23 24 26 28 31 32 35 37 38 39 43 46 48 51 53
26 21 19 15 18 18 18 18 18 20 23 24 26 27 27 28 29 27 27 29 30 28 27 24 21 21 22 22 23 24 26 28 30 33 36 39 41 44 47 47 50 51 52 53
26 22 23 22 21 20 21 21 21 23 25 26 28 28 29 29 28 28 28 28 26 23 21 20 20 21 21 23 25 27 29 32 35 37 40 43 46 49 51 52 53 52 51 50
28 25 23 20 19 20 21 23 24 24 25 28 29 30 29 28 28 27 25 23 21 19 19 20 20 21 23 24 27 29 32 35 38 41 43 46 48 49 51 52 52 51 49 45
24 25 24 23 23 24 24 25 25 26 28 29 29 29 28 27 26 23 21 19 17 18 19 19 21 22 24 27 29 32 35 38 41 44 46 47 48 50 51 51 50 49 46 44
20 20 23 26 28 29 29 27 27 29 29 29 29 27 26 25 23 19 17 18 16 16 19 20 22 25 27 29 32 34 37 41 43 44 46 48 50 51 51 49 47 44 42 41
20 26 32 34 31 31 29 30 32 31 28 26 25 25 26 23 20 19 17 15 16 17 20 22 25 27 29 31 34 38 41 42 43 46 48 50 50 49 48 46 44 42 41 39
34 34 32 32 32 30 31 30 28 24 24 25 26 27 23 19 18 15 13 13 17 20 22 24 26 29 31 34 38 41 41 43 45 47 49 49 48 46 44 42 41 40 39 38
29 29 28 27 27 25 22 21 21 21 24 27 22 17 16 14 12 11 14 18 21 22 24 26 28 30 34 38 40 41 42 45 47 48 48 47 45 43 41 40 39 37 36 35
24 24 22 17 18 18 18 19 18 17 16 15 14 13 12 10 11 16 19 21 22 24 25 27 30 34 38 40 40 41 44 46 47 47 46 45 42 41 39 37 36 34 33 32
15 16 17 17 14 12 13 13 12 12 12 13 13 11 11 14 18 21 22 23 24 25 27 30 34 38 40 40 41 43 45 47 47 45 44 43 41 39 37 36 35 33 32 32
7 5 6 8 8 7 8 9 12 14 13 11 11 13 17 20 22 24 25 26 26 28 31 34 37 40 41 41 43 44 46 46 45 43 42 41 40 38 36 36 34 33 33 33
5 5 6 8 10 12 13 14 14 12 12 13 17 20 23 25 26 28 29 30 31 33 35 38 41 42 42 43 44 45 45 45 43 41 40 39 37 35 35 35 35 36 36 34
7 8 10 11 12 13 13 13 13 14 17 20 23 26 28 29 30 31 33 33 35 37 39 41 43 43 43 43 44 44 43 41 40 40 38 36 34 33 33 34 35 35 34 33
5 5 7 10 12 13 14 16 18 19 22 25 27 29 31 32 34 35 36 37 38 40 42 43 43 43 42 43 42 40 40 39 39 38 36 34 32 32 32 33 34 33 31 30
8 10 11 13 14 16 18 20 22 24 27 29 31 33 35 36 36 36 37 39 40 42 43 42 41 41 41 40 39 38 38 37 37 35 33 31 30 31 32 32 32 30 29 30

GFSNGP_700_spd_039.txt.gz
Wind_Speed
26 22 22 21 22 18 22 21 21 23 24 21 20 17 15 15 16 13 12 14 17 17 17 18 18 20 19 19 21 24 28 32 33 32 30 30 30 29 31 32 35 34 47 48
27 25 26 27 23 21 21 23 26 27 32 25 24 19 17 14 12 16 16 17 20 21 21 21 21 22 22 22 24 28 30 30 31 31 31 30 29 29 32 35 36 44 53 57
23 25 24 27 30 26 26 28 33 36 36 27 24 22 21 20 19 19 20 21 21 21 21 21 20 20 21 24 26 27 28 29 28 29 28 27 27 30 32 42 40 53 48 41
20 19 8 24 27 26 27 30 30 30 27 25 26 26 25 26 24 21 20 18 17 17 17 18 19 22 25 27 27 26 25 24 25 26 28 30 31 31 37 32 37 33 38 36
14 22 22 22 22 22 24 37 25 22 19 19 20 19 21 22 19 17 14 14 16 17 19 22 23 23 22 21 21 22 24 25 27 29 31 33 33 30 32 30 32 35 37 37
18 10 10 26 23 20 16 39 31 27 22 17 14 18 18 18 17 15 15 15 18 19 20 21 20 20 20 21 22 24 26 25 24 24 24 27 28 27 29 34 34 30 29 33
28 16 19 21 19 18 17 34 21 18 15 16 14 13 14 18 17 15 16 17 18 18 18 18 19 20 21 24 25 25 24 24 25 26 28 31 25 25 26 28 30 31 32 33
29 21 15 26 25 27 23 22 23 18 14 12 15 18 18 18 16 15 16 16 17 17 18 19 20 22 24 25 26 26 25 26 30 28 22 23 24 25 27 29 31 33 35 37
29 33 32 24 26 27 25 21 18 15 13 16 18 20 19 18 16 16 16 16 16 18 19 21 22 25 25 26 27 26 28 25 21 23 23 24 25 27 29 32 34 36 38 41
31 33 33 33 32 28 25 19 15 14 12 14 20 21 19 17 17 17 17 17 19 20 21 23 27 28 27 26 26 29 22 22 21 22 24 26 28 30 32 34 36 39 42 45
37 35 33 33 31 31 24 20 18 17 16 18 20 20 19 18 18 19 19 20 22 23 24 27 29 28 28 29 26 21 21 21 22 24 26 28 29 31 34 37 40 44 47 50
38 30 27 22 25 23 20 20 19 18 19 20 21 20 21 21 21 22 23 24 25 25 28 29 29 27 28 22 20 20 21 22 24 26 28 30 32 33 36 40 43 46 48 50
26 27 28 29 22 21 23 21 21 22 21 21 22 23 24 25 25 26 27 28 28 29 29 29 27 25 21 20 20 21 22 24 26 28 30 33 35 38 41 42 43 45 48 51
23 26 31 29 22 23 23 24 23 24 25 25 26 27 28 29 29 29 30 29 29 29 28 25 23 20 19 20 21 23 24 26 28 31 33 35 38 41 43 45 48 51 53 52
25 27 30 27 30 27 25 25 26 26 27 27 28 30 31 32 31 31 30 29 28 27 24 21 19 19 19 21 23 24 26 29 31 33 35 38 40 42 45 49 51 53 52 50
32 32 29 33 31 27 27 26 26 27 29 30 33 34 34 33 33 30 28 28 27 24 21 20 19 19 20 22 24 26 28 30 32 35 37 39 41 44 48 50 52 51 49 47
28 33 30 29 27 29 28 28 29 31 32 34 35 36 36 35 30 28 29 30 27 22 20 19 16 17 21 23 25 27 29 32 35 37 38 40 43 46 50 51 50 48 44 42
33 31 29 23 20 20 24 27 32 36 35 36 36 34 27 25 27 29 29 25 20 18 15 14 16 21 23 25 27 29 31 35 37 37 39 42 45 48 50 49 46 44 41 40
29 33 33 25 25 26 31 27 30 32 34 36 30 26 25 27 27 23 18 16 14 13 13 16 20 23 25 26 28 31 34 37 38 39 41 43 46 48 47 45 43 41 39 39
16 20 22 28 26 23 23 25 26 27 27 25 26 28 26 18 15 13 13 12 11 13 17 21 23 25 26 28 30 34 36 38 39 40 42 44 46 45 44 43 41 39 38 37
20 16 14 16 16 17 17 16 19 23 23 23 20 16 13 14 14 12 11 13 16 19 21 23 25 26 28 31 34 37 39 39 40 40 42 44 44 43 42 41 40 38 37 36
9 10 12 12 12 12 12 13 16 15 15 13 12 14 14 12 11 12 16 19 21 23 25 27 28 30 32 34 37 39 40 40 40 41 42 43 43 42 41 40 38 36 35 35
9 9 8 7 7 8 9 9 11 12 14 15 14 12 11 12 15 19 22 24 26 28 30 32 33 34 35 38 40 41 41 40 40 41 42 42 41 40 40 38 36 35 35 34
6 7 5 4 5 7 8 10 11 12 13 12 11 12 15 18 22 25 27 29 31 33 35 36 37 38 39 40 41 41 40 40 41 41 41 40 39 39 38 36 35 34 34 33
1 2 3 4 5 7 9 11 13 13 13 14 16 18 22 25 27 29 31 33 35 36 37 39 40 40 41 41 41 41 40 40 40 40 39 38 37 37 35 33 33 32 33 32
1 2 3 5 7 9 11 12 13 14 16 18 20 23 26 28 31 33 36 37 38 38 39 40 41 41 41 41 41 40 39 39 38 37 36 36 35 35 32 30 30 31 31 30
4 5 7 9 10 12 13 14 16 18 20 23 26 29 31 33 35 36 37 37 38 40 41 41 41 41 40 39 39 38 38 37 36 35 35 34 33 32 29 28 28 29 29 28

GFSNGP_700_spd_042.txt.gz
Wind_Speed
24 21 21 21 21 18 19 18 19 18 20 19 18 19 19 19 16 17 18 16 15 20 20 20 20 20 22 23 23 23 24 25 27 29 31 32 33 33 32 32 34 35 35 36
19 20 24 24 23 22 22 21 21 22 26 21 22 24 24 22 20 17 18 22 19 21 23 22 22 23 21 23 25 26 26 27 29 31 30 31 33 34 34 31 32 32 34 31
24 21 19 25 29 25 23 24 24 25 25 23 23 25 24 23 22 23 18 16 19 20 24 26 24 24 24 23 22 24 26 28 30 31 31 31 31 32 30 27 33 34 34 36
19 17 9 26 20 19 24 25 24 26 27 25 22 22 25 26 26 25 25 21 22 23 21 20 20 20 20 22 25 27 28 27 26 27 28 30 32 33 33 34 35 34 33 31
12 17 18 20 23 23 23 27 20 26 26 22 24 23 24 24 24 25 24 21 19 17 16 17 19 21 23 25 24 23 23 24 26 28 29 31 31 30 27 28 27 28 30 29
18 11 9 21 22 23 16 36 17 19 14 22 25 26 22 19 21 22 22 21 19 17 17 19 21 22 22 20 21 22 23 25 26 26 25 25 24 26 25 23 23 24 27 28
25 13 14 18 18 17 15 28 19 18 17 17 18 20 20 15 19 23 22 20 19 18 19 20 19 19 18 19 21 23 24 24 23 23 24 24 21 21 22 22 24 26 28 30
20 15 15 21 21 23 28 22 20 22 20 17 20 18 18 18 23 24 22 20 19 19 19 18 18 18 20 21 23 24 24 23 23 23 20 20 20 21 22 24 26 29 31 33
26 24 28 26 26 27 24 23 25 24 20 19 19 19 21 22 24 23 21 20 20 19 18 17 18 20 21 23 24 24 25 26 23 21 21 20 21 22 25 27 29 31 34 36
28 25 24 27 28 29 29 27 28 25 21 19 20 21 23 25 25 23 22 21 20 19 19 20 21 22 24 25 26 26 26 23 21 21 21 21 23 24 26 29 31 34 36 39
35 33 30 28 28 29 30 28 28 27 22 22 22 22 26 27 26 25 23 22 22 22 22 23 24 25 26 27 27 27 22 21 21 21 21 23 24 26 28 31 33 35 39 41
37 32 31 29 33 29 28 26 27 26 24 25 24 25 27 28 28 28 26 25 25 26 26 26 27 28 29 28 28 23 21 21 21 21 22 23 25 29 29 30 34 37 40 43
36 32 30 30 21 24 22 24 27 26 25 24 25 27 30 30 31 30 30 30 30 29 29 29 29 30 30 28 23 22 21 21 21 22 23 25 27 28 30 35 36 37 40 45
29 28 33 35 31 29 33 25 25 27 27 28 29 28 30 31 32 34 34 34 33 32 32 32 31 31 28 24 21 20 21 22 23 24 26 27 28 31 34 36 38 41 44 47
29 34 31 24 24 23 26 25 25 29 30 32 33 33 34 35 36 36 36 35 35 35 34 32 31 29 24 22 22 21 21 23 25 26 27 28 31 33 35 38 40 43 46 49
31 28 26 30 28 29 31 32 32 35 35 36 36 36 38 38 38 38 38 37 35 34 31 30 28 27 24 21 19 20 22 24 26 27 28 30 33 35 37 39 42 45 48 50
29 35 41 44 37 32 38 35 35 36 35 37 40 41 40 41 44 47 45 43 39 28 21 22 23 20 18 17 19 22 24 26 27 29 30 33 35 37 39 41 43 45 48 48
25 29 32 31 33 36 33 33 32 35 37 36 34 35 40 42 40 38 34 29 29 30 21 18 17 16 15 18 22 25 26 27 29 31 33 35 37 39 41 42 43 45 46 45
30 34 36 37 34 31 32 29 28 25 24 28 39 43 40 35 33 30 30 26 18 17 16 16 15 16 19 23 25 27 28 29 31 34 36 38 39 41 42 43 44 45 44 43
31 33 35 31 27 26 27 27 27 30 33 34 31 28 28 27 26 25 20 16 15 15 16 16 17 21 24 27 28 30 31 33 35 37 38 40 41 42 43 43 43 43 42 40
24 21 18 18 18 19 22 21 17 17 20 21 20 19 18 19 18 16 15 15 16 16 16 19 24 27 29 30 32 33 35 36 38 40 41 42 42 43 42 42 41 41 39 38
7 8 8 8 7 8 9 10 11 12 12 11 12 15 16 15 15 16 17 17 16 18 22 27 30 32 34 36 36 37 37 39 40 41 42 42 42 42 42 41 40 38 37 35
7 7 5 5 4 4 5 5 7 10 12 13 13 14 15 16 17 17 17 19 22 25 29 32 34 36 37 38 39 39 40 41 41 42 42 42 41 41 40 39 38 36 35 33
6 8 6 5 3 2 2 3 6 9 11 11 13 15 17 18 18 19 21 24 27 31 34 36 37 39 40 41 42 42 42 41 41 41 41 40 40 39 38 37 35 34 33 31
4 3 2 1 1 2 4 6 8 10 12 13 14 16 17 19 21 24 27 30 33 36 38 39 40 41 41 42 42 42 42 41 41 41 40 39 38 38 36 35 33 32 30 29
2 1 1 2 3 5 6 8 9 11 13 15 17 19 22 24 27 29 32 34 36 38 39 40 41 42 43 43 43 42 41 41 40 40 39 38 37 35 34 32 31 29 27 27
1 2 4 5 6 8 10 11 13 15 17 19 22 24 27 30 32 34 36 38 39 41 42 44 44 45 44 43 42 41 41 40 39 38 37 36 35 33 32 30 29 27 25 25

GFSNGP_700_spd_045.txt.gz
Wind_Speed
30 25 19 24 25 26 29 26 26 22 20 17 15 16 14 14 12 17 19 17 19 18 21 23 22 22 22 21 21 20 20 21 21 24 28 31 32 33 35 36 35 33 29 33
34 27 25 24 25 26 26 25 26 25 25 20 18 18 20 19 21 21 22 18 20 23 24 27 28 27 26 25 23 23 25 27 29 30 32 33 33 32 34 34 34 34 34 36
27 26 26 30 28 27 25 26 24 27 24 19 20 20 20 20 20 20 24 23 20 21 25 27 30 30 29 27 28 28 29 31 30 30 31 33 34 32 31 32 34 35 35 37
22 20 19 23 23 25 28 29 26 26 25 24 23 24 22 23 20 25 26 26 24 21 20 23 27 28 26 24 23 24 25 28 31 31 31 30 31 32 34 35 36 36 34 34
22 24 23 23 23 20 22 24 23 25 24 22 23 24 31 26 26 25 26 30 28 24 22 24 23 22 22 22 24 27 29 30 29 29 29 31 32 33 33 33 32 31 29 27
15 20 19 27 25 17 18 28 20 19 20 19 18 26 23 24 23 23 23 24 25 24 24 23 22 22 23 24 26 28 27 27 27 28 29 29 30 31 30 29 26 26 25 25
25 15 16 18 17 20 22 26 10 12 15 15 18 21 21 24 24 21 22 23 25 25 24 22 22 23 24 25 25 25 25 25 26 27 28 28 28 26 24 25 25 25 26 27
22 25 22 17 20 22 25 23 18 18 15 19 18 24 24 24 22 22 22 25 27 26 24 24 24 25 25 25 25 25 25 25 26 27 27 26 24 25 25 25 25 26 26 27
20 20 27 25 27 24 21 20 23 21 24 24 25 23 23 24 24 24 24 27 27 27 25 25 26 26 26 26 26 25 25 26 27 27 26 24 24 24 24 24 25 27 28 30
23 22 19 17 18 17 23 24 22 25 27 27 25 24 23 25 25 25 27 29 30 29 28 28 28 27 27 27 27 27 28 28 27 25 24 24 24 24 26 25 27 28 30 31
34 34 26 25 26 23 25 24 26 25 26 26 25 24 24 26 27 28 31 32 32 31 30 29 29 28 28 29 30 31 30 28 26 24 24 24 24 25 26 25 28 29 30 32
26 22 28 30 24 31 26 29 26 23 26 27 25 23 25 27 28 31 34 34 34 33 32 31 31 31 31 33 34 33 30 29 25 24 24 25 26 25 25 28 29 29 31 33
27 22 29 28 23 24 26 34 25 22 23 26 27 26 27 30 31 34 36 36 37 36 35 35 35 36 36 36 35 33 32 27 25 24 24 24 25 26 30 28 27 29 31 35
35 33 35 30 31 31 28 31 35 31 27 28 29 30 30 32 35 38 39 40 41 41 41 41 40 39 39 37 34 31 29 25 23 24 24 25 26 27 27 28 31 35 38 38
30 35 33 37 36 33 29 36 34 32 30 27 31 32 33 35 36 41 44 46 46 46 45 45 46 43 42 40 35 26 22 24 24 22 24 25 26 28 28 30 33 35 37 40
33 31 30 32 34 31 34 32 30 29 26 33 34 35 39 40 45 47 48 48 49 49 49 48 46 46 43 31 23 24 23 22 20 22 25 27 28 29 31 32 35 37 40 42
28 28 37 39 36 34 31 34 37 39 37 38 40 42 45 49 49 49 50 52 51 50 50 48 47 41 26 23 21 21 20 20 22 25 27 29 31 31 33 35 37 39 41 43
25 23 23 28 37 39 40 39 38 39 40 41 40 45 48 47 46 46 46 47 48 48 44 35 25 25 23 21 20 20 21 23 25 27 30 31 33 35 36 38 40 42 43 44
39 37 34 32 34 32 33 38 40 41 41 38 36 36 35 35 38 39 39 37 32 27 24 25 22 21 20 19 19 22 25 27 29 32 33 35 36 37 39 41 42 43 44 44
38 40 40 39 39 38 37 35 35 34 30 26 27 30 30 30 27 24 22 21 22 23 23 21 20 20 19 21 23 26 29 32 34 36 38 39 40 40 42 42 43 43 43 43
28 29 29 29 27 27 28 25 22 19 18 18 13 12 13 14 15 17 19 19 19 19 18 19 20 21 22 24 28 31 35 37 39 40 42 42 43 43 43 43 43 43 42 42
11 9 7 8 8 9 9 8 7 5 5 5 6 7 9 12 15 18 18 17 17 18 20 21 23 25 27 30 33 36 39 41 42 43 44 45 44 43 42 42 42 42 41 40
8 8 8 7 6 5 6 6 5 3 1 4 7 9 10 11 12 13 15 16 19 20 22 25 27 30 33 36 39 41 42 44 44 45 45 44 43 42 41 42 41 41 40 39
11 10 9 9 8 7 5 4 2 2 4 5 6 8 10 12 14 16 18 21 23 26 28 31 33 36 39 41 42 43 44 45 45 45 44 43 42 42 41 40 40 39 38 37
6 6 5 4 3 3 3 4 5 6 8 10 11 13 15 17 20 22 24 26 29 32 34 36 39 41 42 43 44 45 46 46 45 44 43 42 41 40 40 39 39 38 37 35
4 3 3 3 5 6 7 8 9 11 12 14 16 18 20 23 25 27 30 32 34 37 39 42 43 44 45 46 47 46 45 44 43 42 41 40 39 39 38 37 36 35 34 32
4 5 6 7 8 9 10 12 13 15 17 19 21 24 26 28 31 33 35 37 39 41 42 44 45 47 47 47 46 46 45 44 43 41 40 39 38 37 35 34 33 32 31 29

GFSNGP_700_spd_048.txt.gz
Wind_Speed
31 26 26 27 28 29 28 25 25 19 21 21 18 11 13 6 16 12 15 18 15 15 19 23 18 22 24 23 20 20 21 20 19 18 21 22 24 27 30 33 35 36 37 38
33 30 32 24 27 28 27 30 29 29 28 23 20 12 13 15 16 14 17 17 19 20 22 28 23 24 25 24 24 24 23 24 24 25 26 30 31 31 32 33 34 36 33 32
28 31 31 36 32 30 26 26 24 26 25 22 21 19 17 17 19 22 25 25 26 20 28 33 28 25 25 29 29 28 27 27 29 30 31 33 32 33 35 34 32 32 33 34
24 19 23 28 28 25 27 27 26 24 24 21 21 21 21 24 20 23 26 28 24 28 28 27 24 24 25 30 32 30 30 33 32 28 29 32 33 32 31 31 32 33 32 32
21 27 25 25 23 19 20 27 27 27 29 24 22 21 20 22 26 30 34 30 24 28 29 27 25 22 24 28 30 30 27 25 27 29 30 30 29 29 30 31 32 33 32 32
12 16 18 28 31 12 22 33 23 23 22 23 22 19 24 23 25 28 25 24 26 27 30 30 26 24 24 25 24 24 25 27 28 28 28 28 28 29 30 31 32 31 28 27
22 17 18 21 24 23 33 26 21 20 24 25 19 20 22 24 25 24 26 27 24 24 24 24 24 24 23 23 24 26 27 27 27 27 27 28 28 30 31 31 29 27 27 27
18 15 19 11 21 31 29 25 27 20 19 15 19 21 22 23 25 24 25 24 23 23 23 24 25 25 26 26 27 28 28 28 28 28 29 30 31 31 30 28 28 27 26 27
15 16 12 19 25 20 21 20 20 19 24 23 25 25 24 24 25 25 25 23 24 24 25 28 29 29 29 28 29 29 30 30 30 31 31 32 32 31 30 28 27 27 27 27
24 34 22 10 18 27 22 22 22 23 16 18 24 26 24 24 25 24 25 25 27 28 30 31 32 31 30 29 30 31 32 32 32 32 32 33 32 31 28 27 27 27 27 28
28 25 22 24 21 8 19 22 18 14 17 22 28 29 24 25 25 24 27 29 30 32 33 34 34 34 32 33 34 34 35 35 34 34 33 34 31 29 28 27 27 28 27 28
25 22 19 20 17 16 27 29 25 25 20 22 22 28 27 26 25 25 29 32 34 35 36 38 38 37 36 36 38 39 38 37 36 36 35 36 31 30 27 26 26 26 27 28
20 22 20 27 26 24 21 20 22 28 32 31 29 27 26 28 28 27 32 34 37 38 40 41 41 42 41 42 43 42 40 39 40 41 37 33 30 26 25 24 24 26 27 28
30 24 31 33 35 28 24 26 29 28 31 27 33 34 33 31 31 32 37 38 41 42 43 45 46 46 46 44 43 42 41 45 46 38 29 26 28 26 24 24 27 29 30 33
22 32 37 41 41 34 33 32 31 28 30 32 34 35 35 31 32 37 40 42 44 45 47 48 48 49 48 47 47 46 47 46 38 31 28 28 26 24 25 27 28 30 34 37
38 35 33 33 36 36 32 34 34 31 33 29 28 29 30 28 31 40 44 45 47 49 52 53 52 50 49 47 48 49 48 36 24 23 25 25 24 25 27 28 29 33 35 38
31 30 30 27 30 36 39 35 33 30 28 29 29 37 37 43 42 41 46 49 51 53 52 50 49 49 51 50 40 25 22 22 22 22 21 23 25 28 29 31 34 36 38 40
28 29 29 29 26 24 20 25 35 36 36 39 42 42 41 38 40 44 45 47 48 47 45 45 42 34 26 23 25 25 23 21 20 22 25 26 28 31 33 36 38 40 40 41
36 33 31 33 36 36 30 30 28 29 31 33 34 37 35 33 35 36 37 38 37 34 28 22 21 22 24 24 22 21 21 21 24 26 27 29 33 35 37 40 41 42 42 43
34 35 33 35 35 31 32 32 33 35 32 30 30 30 27 27 27 26 23 19 16 15 16 17 19 20 21 20 20 21 23 26 27 30 32 34 37 39 41 42 43 44 44 44
31 31 29 28 30 29 29 27 23 21 17 15 12 9 8 9 10 9 8 9 11 14 17 17 17 17 19 21 23 26 28 29 32 35 38 39 40 41 42 43 43 43 43 42
9 10 13 12 9 9 7 3 4 5 6 6 6 4 1 1 4 7 9 11 12 13 14 16 19 21 24 26 29 31 33 35 37 39 41 42 42 43 43 43 42 42 41 41
9 10 11 11 11 10 10 10 9 8 7 5 3 3 4 4 6 7 9 11 14 16 18 21 24 27 29 32 34 36 37 39 41 42 43 43 43 43 43 43 42 41 40 39
11 10 9 10 10 8 6 7 6 5 4 4 4 5 7 9 10 12 14 16 20 22 25 27 30 32 34 37 39 41 42 43 44 45 45 45 44 43 42 41 40 39 38 37
8 8 8 7 4 4 5 5 5 5 6 7 9 10 12 14 16 18 20 23 26 30 30 33 35 38 40 42 44 45 45 46 46 46 46 44 43 42 41 40 39 37 36 35
6 5 4 5 6 7 8 8 9 10 11 12 14 15 18 21 23 25 28 30 32 34 37 40 41 42 43 44 45 45 45 46 45 45 43 41 39 38 37 36 35 33 32 31
5 6 7 8 9 10 11 12 14 16 17 19 20 22 24 26 28 30 32 34 36 38 39 40 41 42 43 43 43 43 42 41 41 39 37 35 33 32 31 30 29 28 27 27